Location: Cran-Gévrier
(45.9039°N, 6.1012°E)
Time: 10:45:14
(UTC+00:00)

Cosmos 2237 Rocket - Pass Details

Date: 09 February 2023
Orbit: 834 x 849 km, 71.0° (Epoch: 20 March)

Event Time Altitude Azimuth Distance (km) Brightness Sun altitude
Rises 20:08:11 0° 230° (SW) 3,400 5.8 -34.3°
Reaches altitude 10° 20:10:48 10° 239° (WSW) 2,470 5.0 -34.7°
Maximum altitude 20:16:02 37° 306° (NW) 1,298 3.5 -35.6°
Enters shadow 20:16:12 37° 310° (NW) 1,300 3.5 -35.6°
